Weather History for Lakeland Region, FL

Change the Weather History Date:

Wednesday, September 5, 2012

  Actual Average Record
Temperature  
Mean Temperature 80 °F -  
Max Temperature 89 °F 86 °F 93 °F (1999)
Min Temperature 71 °F 72 °F 70 °F (1995)
Cooling Degree Days 15    
Growing Degree Days 30 (Base 50)    
Moisture  
Dew Point 71 °F    
Average Humidity 83    
Maximum Humidity 100    
Minimum Humidity 49    
Precipitation  
Precipitation 0.00 in - - ()
Sea Level Pressure  
Sea Level Pressure 29.98 in    
Wind  
Wind Speed 4 mph (South)    
Max Wind Speed 9 mph    
Max Gust Speed -    
Visibility 11 miles    
Events Rain    
Averages and records for this station are not official NWS values.
T = Trace of Precipitation, MM = Missing Value Source: NWS Daily Summary

Daily Weather History Graph

Daily Weather History Graph

Search for Another Location

Airport:

Trip Planner

Search our weather history database for the weather conditions in past years. The results will help you decide how hot, cold, wet, or windy it might be!

Date:

Astronomy

Sep. 05, 2012 Rise Set
Actual Time 7:08 AM EDT 7:43 PM EDT
Civil Twilight 6:45 AM EDT 8:07 PM EDT
Nautical Twilight 6:17 AM EDT 8:35 PM EDT
Astronomical Twilight 5:48 AM EDT 9:03 PM EDT
Moon 10:45 PM EDT (9/5) 11:40 AM EDT (9/5)
Length of Visible Light 13h 22m
Length of Day
12h 35m
Waning Gibbous, 76% of the Moon is Illuminated
Sep 5
Waning Gibbous
Sep 8
Last Quarter
Sep 15
New
Sep 22
First Quarter
Sep 29
Full

Hourly Weather History & Observations

Time (EDT) Temp. Heat Index Dew Point Humidity Pressure Visibility Wind Dir Wind Speed Gust Speed Precip Events Conditions
12:15 AM 77.0 °F - 71.6 °F 83% 30.00 in 10.0 mi North - - N/A   Scattered Clouds
12:35 AM 77.0 °F - 71.6 °F 83% 30.00 in 10.0 mi North - - N/A   Clear
12:55 AM 75.2 °F - 71.6 °F 89% 30.00 in 10.0 mi North - - N/A   Clear
1:15 AM 75.2 °F - 71.6 °F 89% 30.00 in 10.0 mi North - - N/A   Clear
1:35 AM 75.2 °F - 71.6 °F 89% 30.00 in 10.0 mi North - - N/A   Clear
1:55 AM 73.4 °F - 71.6 °F 94% 29.99 in 10.0 mi North - - N/A   Scattered Clouds
2:15 AM 73.4 °F - 71.6 °F 94% 29.99 in 10.0 mi North - - N/A   Scattered Clouds
2:55 AM 73.4 °F - 71.6 °F 94% 29.98 in 10.0 mi North - - N/A   Clear
3:15 AM 73.4 °F - 71.6 °F 94% 29.97 in 10.0 mi North - - N/A   Clear
3:35 AM 73.4 °F - 71.6 °F 94% 29.96 in 10.0 mi North - - N/A   Clear
3:55 AM 73.4 °F - 71.6 °F 94% 29.96 in 10.0 mi North - - N/A   Clear
4:15 AM 71.6 °F - 71.6 °F 100% 29.96 in 10.0 mi North - - N/A   Clear
4:35 AM 71.6 °F - 71.6 °F 100% 29.96 in 10.0 mi North - - N/A   Clear
4:55 AM 71.6 °F - 71.6 °F 100% 29.96 in 10.0 mi North - - N/A   Clear
5:15 AM 71.6 °F - 71.6 °F 100% 29.96 in 10.0 mi North - - N/A   Clear
5:50 AM 73.4 °F - 71.6 °F 94% 29.97 in 10.0 mi Calm Calm - N/A   Clear
5:55 AM 71.6 °F - 71.6 °F 100% 29.97 in 10.0 mi North - - N/A   Clear
6:15 AM 71.6 °F - 71.6 °F 100% 29.98 in 10.0 mi North - - N/A   Clear
6:35 AM 71.6 °F - 71.6 °F 100% 29.98 in 10.0 mi North - - N/A   Clear
6:50 AM 73.4 °F - 71.6 °F 94% 29.98 in 10.0 mi Calm Calm - N/A   Clear
7:50 AM 73.4 °F - 71.6 °F 94% 29.90 in 10.0 mi Calm Calm - N/A   Clear
8:50 AM 75.2 °F - 73.4 °F 94% 30.00 in 10.0 mi South 6.9 mph - N/A   Clear
9:50 AM 80.6 °F 84.6 °F 71.6 °F 74% 30.00 in 10.0 mi South 6.9 mph - N/A   Partly Cloudy
10:50 AM 84.2 °F 88.4 °F 69.8 °F 62% 30.01 in 12.0 mi South 6.9 mph - N/A   Partly Cloudy
11:50 AM 86.0 °F 90.4 °F 69.8 °F 58% 30.01 in 12.0 mi South 6.9 mph - N/A   Mostly Cloudy
12:51 PM 87.8 °F 92.6 °F 69.8 °F 55% 30.00 in 15.0 mi WSW 5.8 mph - N/A   Mostly Cloudy
1:52 PM 89.6 °F 93.4 °F 68.0 °F 49% 29.97 in 15.0 mi SW 4.6 mph - N/A   Mostly Cloudy
2:55 PM 80.6 °F 84.6 °F 71.6 °F 74% 29.96 in 15.0 mi North 6.9 mph - N/A Rain Light Rain
3:50 PM 87.8 °F 93.8 °F 71.6 °F 58% 29.94 in 15.0 mi SW 4.6 mph - N/A   Scattered Clouds
4:50 PM 86.0 °F 90.4 °F 69.8 °F 58% 29.93 in 15.0 mi South 6.9 mph - N/A   Mostly Cloudy
5:50 PM 87.8 °F 91.4 °F 68.0 °F 52% 29.94 in 15.0 mi SW 9.2 mph - N/A   Mostly Cloudy
6:50 PM 87.8 °F 92.6 °F 69.8 °F 55% 29.95 in 15.0 mi SSW 6.9 mph - N/A   Mostly Cloudy
7:50 PM 82.4 °F 87.2 °F 71.6 °F 70% 29.98 in 15.0 mi ESE 9.2 mph - N/A   Scattered Clouds
8:54 PM 77.0 °F - 68.0 °F 74% 29.99 in 12.0 mi East 5.8 mph - N/A   Mostly Cloudy
9:50 PM 75.2 °F - 69.8 °F 83% 29.99 in 12.0 mi SSE 4.6 mph - N/A   Scattered Clouds
10:55 PM 73.4 °F - 68.0 °F 83% 30.00 in 10.0 mi North - - N/A   Clear
11:15 PM 73.4 °F - 69.8 °F 88% 30.00 in 10.0 mi North - - N/A   Scattered Clouds
11:35 PM 73.4 °F - 69.8 °F 88% 30.00 in 10.0 mi North - - N/A   Scattered Clouds
11:55 PM 73.4 °F - 69.8 °F 88% 30.00 in 10.0 mi North - - N/A   Scattered Clouds